Location: Góry Miechowskie
(50.3599°N, 20.1803°E)
Time: 19:23:46
(UTC+00:00)

Meteor 1-11 - Pass Details

Date: 11 September 2024
Orbit: 841 x 884 km, 81.2° (Epoch: 09 October)

Event Time Altitude Azimuth Distance (km) Brightness Sun altitude
Rises 00:12:31 0° 341° (NNW) 3,480 8.0 -31.4°
Reaches altitude 10° 00:15:07 10° 334° (NNW) 2,543 7.0 -31.2°
Enters shadow 00:18:10 27° 310° (NW) 1,634 5.7 -30.9°
